User: anonymous   Login
Location: Unspecified
(0.0000°N, 0.0000°E)
Time: 22:53:36
(UTC+02:00)
Language:

Centaur D-1AR AC-41 - Orbit

View from above orbital plane
View from above orbital plane
View from above satellite
View from above satellite

Ground track
Ground track

The orbit data is extracted from the following two-line orbital elements,

1 10976U 78068B   17177.03848890 +.00000023 +00000-0 +62429-3 0  9996
2 10976 021.1565 199.4198 7201623 263.9454 014.1413 02.22314093313276
Epoch (UTC): 26 June 2017 00:55:25
Eccentricity: 0.7201623
inclination: 21.1565°
perigee height: 561 km
apogee height: 36279 km
right ascension of ascending node: 199.4198°
argument of perigee: 263.9454°
revolutions per day: 2.22314093
mean anomaly at epoch: 14.1413°
orbit number at epoch: 31327

The dashed part of the orbit path shows where the satellite is in the earth's shadow,  

DLR